When you browse on this site, cookies collect data to enhance your experience and personalize the content and advertising you see.
Visit our Privacy Policy to learn more. By continuing to use the site, you agree to this use of cookies and data.
  • In Czech Republic
  • List of Countries
  • For 7 days
  • Water Temperature
  • Weather Map
  • Weather Widgets
  • user-avatar
    Login

    Hourly Weather Cape Coast

    Today, 20 September, Friday

    Time Temperature Precipitation Wind Pressure Humidity
    00:00 +26°C° 0.1 mm 3 mps 759 mmHg 97%
    01:00 +26°C° 0.1 mm 3 mps 758 mmHg 97%
    02:00 +26°C° 0.1 mm 3 mps 758 mmHg 96%
    03:00 +26°C° 0.1 mm 3 mps 757 mmHg 96%
    04:00 +26°C° 0.1 mm 3 mps 758 mmHg 96%
    05:00 +26°C° 0.1 mm 3 mps 758 mmHg 96%
    06:00 +26°C° 0.1 mm 3 mps 759 mmHg 96%
    07:00 +27°C° 0 mm 3 mps 759 mmHg 92%
    08:00 +28°C° 0 mm 3 mps 759 mmHg 88%
    09:00 +28°C° 0 mm 3 mps 759 mmHg 85%
    10:00 +29°C° 0.3 mm 4 mps 759 mmHg 83%
    11:00 +29°C° 0.3 mm 4 mps 759 mmHg 81%
    12:00 +30°C° 0.3 mm 4 mps 758 mmHg 79%
    13:00 +30°C° 0.1 mm 5 mps 758 mmHg 78%
    14:00 +30°C° 0.1 mm 5 mps 757 mmHg 77%
    15:00 +30°C° 0.1 mm 5 mps 756 mmHg 76%
    16:00 +29°C° 0 mm 5 mps 757 mmHg 80%
    17:00 +28°C° 0 mm 5 mps 757 mmHg 84%
    18:00 +27°C° 0 mm 5 mps 758 mmHg 88%
    19:00 +27°C° 0.1 mm 4 mps 758 mmHg 89%
    20:00 +27°C° 0.1 mm 4 mps 759 mmHg 90%
    21:00 +27°C° 0.1 mm 4 mps 759 mmHg 90%
    22:00 +26°C° 0.1 mm 4 mps 759 mmHg 91%
    23:00 +26°C° 0.1 mm 4 mps 759 mmHg 92%

    Tomorrow, 21 September, Saturday

    Time Temperature Precipitation Wind Pressure Humidity
    00:00 +26°C° 0.1 mm 4 mps 759 mmHg 93%
    01:00 +26°C° 0.1 mm 4 mps 758 mmHg 93%
    02:00 +26°C° 0.1 mm 4 mps 758 mmHg 94%
    03:00 +26°C° 0.1 mm 3 mps 758 mmHg 94%
    04:00 +26°C° 0.3 mm 3 mps 758 mmHg 95%
    05:00 +26°C° 0.3 mm 3 mps 759 mmHg 95%
    06:00 +25°C° 0.3 mm 3 mps 759 mmHg 95%
    07:00 +26°C° 0.2 mm 3 mps 759 mmHg 92%
    08:00 +27°C° 0.2 mm 3 mps 759 mmHg 88%
    09:00 +28°C° 0.2 mm 3 mps 760 mmHg 85%
    10:00 +29°C° 0.6 mm 3 mps 759 mmHg 82%
    11:00 +29°C° 0.6 mm 3 mps 759 mmHg 79%
    12:00 +30°C° 0.6 mm 4 mps 758 mmHg 76%
    13:00 +30°C° 0.4 mm 4 mps 758 mmHg 77%
    14:00 +29°C° 0.4 mm 4 mps 758 mmHg 78%
    15:00 +29°C° 0.4 mm 4 mps 757 mmHg 78%
    16:00 +28°C° 1.3 mm 4 mps 757 mmHg 84%
    17:00 +27°C° 1.3 mm 3 mps 758 mmHg 89%
    18:00 +26°C° 1.3 mm 2 mps 758 mmHg 94%
    19:00 +26°C° 0.3 mm 3 mps 758 mmHg 94%
    20:00 +26°C° 0.3 mm 4 mps 758 mmHg 94%
    21:00 +26°C° 0.3 mm 5 mps 759 mmHg 93%
    22:00 +25°C° 0 mm 4 mps 759 mmHg 94%
    23:00 +25°C° 0 mm 3 mps 759 mmHg 95%

    Day after tomorrow, 22 September, Sunday

    Time Temperature Precipitation Wind Pressure Humidity
    00:00 +25°C° 0 mm 3 mps 758 mmHg 96%
    01:00 +25°C° 0.2 mm 3 mps 758 mmHg 95%
    02:00 +25°C° 0.2 mm 3 mps 758 mmHg 95%
    03:00 +26°C° 0.2 mm 3 mps 758 mmHg 94%
    04:00 +25°C° 0.4 mm 3 mps 758 mmHg 94%
    05:00 +25°C° 0.4 mm 3 mps 759 mmHg 94%
    06:00 +25°C° 0.4 mm 2 mps 759 mmHg 94%
    07:00 +27°C° 0.4 mm 3 mps 759 mmHg 89%
    08:00 +28°C° 0.4 mm 3 mps 759 mmHg 84%
    09:00 +29°C° 0.4 mm 3 mps 760 mmHg 78%
    10:00 +30°C° 0.3 mm 4 mps 759 mmHg 77%
    11:00 +30°C° 0.3 mm 4 mps 759 mmHg 75%
    12:00 +32°C° 0.3 mm 5 mps 758 mmHg 73%
    13:00 +30°C° 0.3 mm 5 mps 758 mmHg 75%
    14:00 +30°C° 0.3 mm 6 mps 757 mmHg 76%
    15:00 +30°C° 0.3 mm 6 mps 757 mmHg 77%
    16:00 +29°C° 0 mm 6 mps 757 mmHg 80%
    17:00 +28°C° 0 mm 6 mps 757 mmHg 84%
    18:00 +27°C° 0 mm 5 mps 757 mmHg 87%
    19:00 +26°C° 0 mm 5 mps 757 mmHg 88%
    20:00 +26°C° 0 mm 5 mps 758 mmHg 89%
    21:00 +26°C° 0 mm 4 mps 758 mmHg 90%
    22:00 +26°C° 0 mm 4 mps 758 mmHg 92%
    23:00 +25°C° 0 mm 4 mps 758 mmHg 93%

    23 September, Monday

    Time Temperature Precipitation Wind Pressure Humidity
    00:00 +25°C° 0 mm 4 mps 759 mmHg 94%
    01:00 +25°C° 0 mm 4 mps 758 mmHg 95%
    02:00 +25°C° 0 mm 3 mps 758 mmHg 96%
    03:00 +25°C° 0 mm 3 mps 758 mmHg 97%
    04:00 +25°C° 0 mm 3 mps 758 mmHg 97%
    05:00 +25°C° 0 mm 3 mps 759 mmHg 96%
    06:00 +25°C° 0 mm 2 mps 759 mmHg 96%
    07:00 +25°C° 0 mm 3 mps 759 mmHg 93%
    08:00 +26°C° 0 mm 3 mps 760 mmHg 89%
    09:00 +27°C° 0 mm 3 mps 760 mmHg 86%
    10:00 +29°C° 0 mm 4 mps 759 mmHg 79%
    11:00 +30°C° 0 mm 4 mps 759 mmHg 73%
    12:00 +33°C° 0 mm 4 mps 758 mmHg 66%
    13:00 +32°C° 0.6 mm 4 mps 758 mmHg 70%
    14:00 +32°C° 0.6 mm 5 mps 757 mmHg 74%
    15:00 +30°C° 0.6 mm 5 mps 757 mmHg 78%
    16:00 +29°C° 1 mm 6 mps 757 mmHg 82%
    17:00 +28°C° 1 mm 6 mps 757 mmHg 86%
    18:00 +27°C° 1 mm 7 mps 757 mmHg 91%
    19:00 +26°C° 0 mm 6 mps 758 mmHg 92%
    20:00 +26°C° 0 mm 5 mps 758 mmHg 93%
    21:00 +26°C° 0 mm 4 mps 758 mmHg 94%
    22:00 +26°C° 0 mm 3 mps 759 mmHg 94%
    23:00 +25°C° 0 mm 3 mps 759 mmHg 95%

    24 September, Tuesday

    Time Temperature Precipitation Wind Pressure Humidity
    00:00 +25°C° 0 mm 3 mps 759 mmHg 96%
    01:00 +25°C° 0.1 mm 4 mps 759 mmHg 95%
    02:00 +25°C° 0.1 mm 4 mps 759 mmHg 94%
    03:00 +25°C° 0.1 mm 4 mps 758 mmHg 94%
    04:00 +25°C° 0.1 mm 4 mps 759 mmHg 94%
    05:00 +25°C° 0.1 mm 3 mps 759 mmHg 95%
    06:00 +25°C° 0.1 mm 3 mps 759 mmHg 96%
    07:00 +26°C° 0.1 mm 3 mps 759 mmHg 93%
    08:00 +26°C° 0.1 mm 3 mps 760 mmHg 90%
    09:00 +27°C° 0.1 mm 3 mps 760 mmHg 86%
    10:00 +28°C° 0.2 mm 3 mps 760 mmHg 85%
    11:00 +28°C° 0.2 mm 3 mps 759 mmHg 83%
    12:00 +29°C° 0.2 mm 2 mps 759 mmHg 81%
    13:00 +29°C° 0.6 mm 3 mps 758 mmHg 81%
    14:00 +29°C° 0.6 mm 4 mps 758 mmHg 80%
    15:00 +30°C° 0.6 mm 5 mps 757 mmHg 80%
    16:00 +29°C° 0.2 mm 5 mps 757 mmHg 83%
    17:00 +28°C° 0.2 mm 5 mps 757 mmHg 87%
    18:00 +27°C° 0.2 mm 5 mps 758 mmHg 90%
    19:00 +26°C° 0 mm 5 mps 758 mmHg 91%
    20:00 +26°C° 0 mm 5 mps 758 mmHg 93%
    21:00 +26°C° 0 mm 4 mps 759 mmHg 94%
    22:00 +26°C° 0 mm 5 mps 759 mmHg 94%
    23:00 +26°C° 0 mm 5 mps 759 mmHg 95%

    25 September, Wednesday

    Time Temperature Precipitation Wind Pressure Humidity
    00:00 +25°C° 0 mm 5 mps 759 mmHg 96%
    01:00 +25°C° 0 mm 5 mps 759 mmHg 96%
    02:00 +25°C° 0 mm 5 mps 758 mmHg 96%
    03:00 +25°C° 0 mm 4 mps 758 mmHg 97%
    04:00 +25°C° 0 mm 4 mps 758 mmHg 97%
    05:00 +25°C° 0 mm 4 mps 759 mmHg 97%
    06:00 +25°C° 0 mm 3 mps 759 mmHg 97%
    07:00 +26°C° 0.1 mm 3 mps 759 mmHg 92%
    08:00 +27°C° 0.1 mm 3 mps 760 mmHg 88%
    09:00 +28°C° 0.1 mm 4 mps 760 mmHg 83%
    10:00 +29°C° 0.3 mm 4 mps 760 mmHg 81%
    11:00 +29°C° 0.3 mm 4 mps 759 mmHg 80%
    12:00 +30°C° 0.3 mm 5 mps 758 mmHg 79%
    13:00 +30°C° 0.5 mm 5 mps 758 mmHg 79%
    14:00 +30°C° 0.5 mm 5 mps 757 mmHg 79%
    15:00 +30°C° 0.5 mm 5 mps 757 mmHg 79%
    16:00 +29°C° 0.1 mm 5 mps 757 mmHg 82%
    17:00 +28°C° 0.1 mm 5 mps 757 mmHg 85%
    18:00 +27°C° 0.1 mm 5 mps 758 mmHg 87%
    19:00 +26°C° 0 mm 5 mps 758 mmHg 89%
    20:00 +26°C° 0 mm 5 mps 758 mmHg 90%
    21:00 +26°C° 0 mm 4 mps 759 mmHg 91%
    22:00 +26°C° 0 mm 4 mps 759 mmHg 92%
    23:00 +25°C° 0 mm 4 mps 759 mmHg 94%
    Show more